Hourly Data Report for October 26, 2014

All times are specified in Local Standard Time (LST). Add 1 hour to adjust for Daylight Saving Time where and when it is observed.

TORONTO INTL A
ONTARIO

43°40'36.000" N
79°37'50.000" W
173.40 m
6158731
71624
YYZ

Download Data

Hourly Data (October 2014)
Hourly Data Report for October 26, 2014
Temp Definition
°C
Dew Point Temp Definition
°C
Rel Hum Definition
%
Wind Dir Definition
10's deg

Wind Spd Definition
km/h
Visibility Definition
km
Stn Press Definition
kPa
Hmdx Definition


Wind Chill Definition


Weather Definition


TIME
00:00 Legend Double Dagger 7.7 3.6 75 26 17 24.1 98.29     LegendNANA
01:00 Legend Double Dagger 8.1 3.4 72 26 22 24.1 98.29     Mainly Clear
02:00 Legend Double Dagger 8.8 3.0 67 28 26 24.1 98.29     LegendNANA
03:00 Legend Double Dagger 8.9 2.5 64 29 23 24.1 98.28     LegendNANA
04:00 Legend Double Dagger 9.8 2.9 62 30 38 24.1 98.32     Mainly Clear
05:00 Legend Double Dagger 9.8 2.7 61 31 31 24.1 98.37     LegendNANA
06:00 Legend Double Dagger 9.4 3.0 64 30 27 24.1 98.42     LegendNANA
07:00 Legend Double Dagger 9.4 3.0 64 30 34 24.1 98.48     Mostly Cloudy
08:00 Legend Double Dagger 10.6 3.7 62 31 36 24.1 98.53     LegendNANA
09:00 Legend Double Dagger 10.7 4.2 64 31 37 24.1 98.57     LegendNANA
10:00 Legend Double Dagger 10.6 4.3 65 30 30 24.1 98.65     Mostly Cloudy
11:00 Legend Double Dagger 10.3 4.1 65 30 41 24.1 98.73     LegendNANA
12:00 Legend Double Dagger 11.0 4.0 62 29 35 24.1 98.72     LegendNANA
13:00 Legend Double Dagger 12.2 4.0 57 28 36 24.1 98.74     Mostly Cloudy
14:00 Legend Double Dagger 11.4 4.2 61 29 28 24.1 98.76     LegendNANA
15:00 Legend Double Dagger 10.5 3.8 63 29 36 24.1 98.86     LegendNANA
16:00 Legend Double Dagger 9.9 3.4 64 29 31 24.1 98.97     Cloudy
17:00 Legend Double Dagger 9.4 3.4 66 28 28 24.1 99.03     LegendNANA
18:00 Legend Double Dagger 9.2 2.6 63 30 25 24.1 99.11     LegendNANA
19:00 Legend Double Dagger 8.2 2.0 65 30 16 24.1 99.17     Mainly Clear
20:00 Legend Double Dagger 5.7 1.8 76 26 12 24.1 99.20     LegendNANA
21:00 Legend Double Dagger 4.1 1.5 83 25 12 24.1 99.23     LegendNANA
22:00 Legend Double Dagger 4.6 2.1 84 26 14 24.1 99.24     Clear
23:00 Legend Double Dagger 4.5 2.0 84 27 17 24.1 99.26     LegendNANA

Notes on Data Quality.

Legend

  • E = Estimated
  • M = Missing
  • NA = Not Available
  • ‡ = Partner data that is not subject to review by the National Climate Archives
Date modified: